Regional Weather Roundup
Issued by NWS Goodland, KS

Home | Current Version | Previous Version | Graphics & Text | Print | Product List | Glossary On
Versions: 1 2 3 4 5 6 7 8 9 10 11 12 13 14 15 16 17 18 19 20 21 22 23 24 25 26 27 28 29 30 31 32 33 34 35 36 37 38 39 40 41 42 43 44 45 46 47 48 49 50
000
ASUS43 KGLD 221208
RWRGLD

GOODLAND FORECAST AREA HOURLY WEATHER ROUNDUP
NATIONAL WEATHER SERVICE GOODLAND KS
600 AM MDT MON MAY 22 2017

...OFFICIAL OBSERVATIONS...

CITY           SKY/WX    TMP DP  RH WIND       PRES   REMARKS
GOODLAND KS    CLOUDY    51  49  92 W9        30.12R
HILL CITY KS   CLOUDY    56  52  86 W3        30.06S
IMPERIAL NEB   CLOUDY    49  43  80 W13       30.10S
MCCOOK NEB     PTCLDY    49  49 100 W7        30.07F
AKRON CO       CLOUDY    44  43  96 W8        30.16S FOG
BURLINGTON CO  CLOUDY    50  48  93 W7        30.14F
LIMON CO       CLOUDY    43  43 100 NW3       30.18F
$$

...UNOFFICIAL OBSERVATIONS...

CITY           SKY/WX    TMP DP  RH WIND       PRES   REMARKS
NORTON KS      MOCLDY    54  48  82 NW9       30.05F
SHARON SPRINGS   N/A     51  49  92 N13G23      N/A
TRENTON NEB      N/A     47  32  56 NW6         N/A
KIT CARSON CO    N/A     49  45  87 MISG        N/A
YUMA CO        FAIR      45  34  65 W9        30.14F
$$



USA.gov is the U.S. government's official web portal to all federal, state and local government web resources and services.